Location: Wanzleben
(52.0609°N, 11.4408°E)
Time: 06:44:18
(UTC+00:00)

Cosmos 1844 Rocket - Pass Details

Date: 18 September 2020
Orbit: 823 x 846 km, 71.0° (Epoch: 22 October)

Event Time Altitude Azimuth Distance (km) Brightness Sun altitude
Rises 19:40:05 0° 203° (SSW) 3,348 5.7 -21.0°
Reaches altitude 10° 19:42:30 10° 202° (SSW) 2,421 5.0 -21.3°
Maximum altitude 19:48:02 78° 118° (ESE) 852 2.5 -22.0°
Drops below altitude 10° 19:53:39 10° 33° (NNE) 2,448 5.1 -22.7°
Sets 19:56:06 0° 32° (NNE) 3,389 5.9 -23.0°
